Weather in Toecksfors

Sweden     59°30′32″N   11°50′32″E
temp.,
°C
wind,
m/s
gust,
m/s
humid.,
%
clouds,
%
prec.,
mm/h
press.,
hPa
HPBL,
m
25 february, thu
thu2501:00+5sw61496100 0.1 1014653
04:00+5sw61597100 0.0 1012591
07:00+6sw61497100 0.9 1011594
10:00+6sw71596100 0.4 1010627
13:00+6sw71492100 0.4 1010751
16:00+7sw7158181 0.0 1009721
19:00+4sw6157965 0.0 1010659
22:00+4sw6157810 0.0 1010582
26 february, fri
fri2601:00+4sw7168254 0.0 1010633
04:00+4wsw6157715 0.0 1010622
07:00+3w4137451 0.0 1012399
10:00+5w51264100 0.0 1014530
13:00+8nw4105688 0.0 1016692
16:00+7nw28640 0.0 1019371
19:00+3nnw23790 0.0 102353
22:00+2nne27800 0.0 1026177
27 february, sat
sat2701:000nne22810 0.0 102928
04:00−1wnw11850 0.0 103021
07:00−1wsw11871 0.0 103121
10:00+3sw147491 0.0 1031231
13:00+5sw376495 0.0 1031562
16:00+4sw2676100 0.0 1030358
19:00+1sw1294100 0.0 103036
22:00−1w019368 0.0 103021
28 february, sun
sun2801:00−1nnw129234 0.0 103121
04:00−1n22890 0.0 103146
07:00−1nne12900 0.0 103221
10:00+3nnw00700 0.0 1033130
13:00+6ssw12590 0.0 1032350
16:00+5sw22730 0.0 103166
19:000sw11890 0.0 103122
22:00−1sw12910 0.0 103121
1 march, mon
mon101:00−1sw12940 0.0 103137
04:00−1ssw25960 0.0 1029141
07:00−1ssw27974 0.0 1029203
10:00+3sw368840 0.0 1028355
13:00+4sw358661 0.0 1028359
16:00+4sw248651 0.0 1027284
19:000sw119326 0.0 102822
22:00−1wsw01910 0.0 102921